Year,Month,Day,Hour,Minute,Value (Times are PST for temperature in C)
2010,10,19,00,00,4.30
2010,10,19,00,01,4.30
2010,10,19,00,02,4.30
2010,10,19,00,03,4.30
2010,10,19,00,04,4.30
2010,10,19,00,05,4.30
2010,10,19,00,06,4.30
2010,10,19,00,07,4.30
2010,10,19,00,08,4.20
2010,10,19,00,09,4.20
2010,10,19,00,10,4.20
2010,10,19,00,11,4.20
2010,10,19,00,12,4.20
2010,10,19,00,13,4.20
2010,10,19,00,14,4.20
2010,10,19,00,15,4.10
2010,10,19,00,16,4.10
2010,10,19,00,17,4.10
2010,10,19,00,18,4.10
2010,10,19,00,19,4.10
2010,10,19,00,20,4.10
2010,10,19,00,21,4.10
2010,10,19,00,22,4.10
2010,10,19,00,23,4.10
2010,10,19,00,24,4.10
2010,10,19,00,25,4.00
2010,10,19,00,26,4.00
2010,10,19,00,27,4.00
2010,10,19,00,28,4.00
2010,10,19,00,29,4.00
2010,10,19,00,30,4.00
2010,10,19,00,31,4.00
2010,10,19,00,32,3.90
2010,10,19,00,33,3.90
2010,10,19,00,34,3.90
2010,10,19,00,35,3.90
2010,10,19,00,36,3.90
2010,10,19,00,37,3.90
2010,10,19,00,38,3.90
2010,10,19,00,39,3.90
2010,10,19,00,40,3.90
2010,10,19,00,41,3.90
2010,10,19,00,42,3.90
2010,10,19,00,43,3.90
2010,10,19,00,44,3.80
2010,10,19,00,45,3.80
2010,10,19,00,46,3.80
2010,10,19,00,47,3.80
2010,10,19,00,48,3.80
2010,10,19,00,49,3.80
2010,10,19,00,50,3.80
2010,10,19,00,51,3.80
2010,10,19,00,52,3.80
2010,10,19,00,53,3.80
2010,10,19,00,54,3.80
2010,10,19,00,55,3.80
2010,10,19,00,56,3.80
2010,10,19,00,57,3.80
2010,10,19,00,58,3.80
2010,10,19,00,59,3.80
2010,10,19,01,00,3.80
2010,10,19,01,01,3.80
2010,10,19,01,02,3.80
2010,10,19,01,03,3.80
2010,10,19,01,04,3.80
2010,10,19,01,05,3.80
2010,10,19,01,06,3.80
2010,10,19,01,07,3.80
2010,10,19,01,08,3.80
2010,10,19,01,09,3.80
2010,10,19,01,10,3.80
2010,10,19,01,11,3.80
2010,10,19,01,12,3.80
2010,10,19,01,13,3.80
2010,10,19,01,14,3.70
2010,10,19,01,15,3.70
2010,10,19,01,16,3.70
2010,10,19,01,17,3.70
2010,10,19,01,18,3.70
2010,10,19,01,19,3.70
2010,10,19,01,20,3.70
2010,10,19,01,21,3.70
2010,10,19,01,22,3.70
2010,10,19,01,23,3.70
2010,10,19,01,24,3.70
2010,10,19,01,25,3.70
2010,10,19,01,26,3.70
2010,10,19,01,27,3.70
2010,10,19,01,28,3.70
2010,10,19,01,29,3.70
2010,10,19,01,30,3.70
2010,10,19,01,31,3.70
2010,10,19,01,32,3.70
2010,10,19,01,33,3.70
2010,10,19,01,34,3.70
2010,10,19,01,35,3.70
2010,10,19,01,36,3.70
2010,10,19,01,37,3.70
2010,10,19,01,38,3.70
2010,10,19,01,39,3.70
2010,10,19,01,40,3.70
2010,10,19,01,41,3.70
2010,10,19,01,42,3.70
2010,10,19,01,43,3.60
2010,10,19,01,44,3.60
2010,10,19,01,45,3.60
2010,10,19,01,46,3.60
2010,10,19,01,47,3.60
2010,10,19,01,48,3.60
2010,10,19,01,49,3.60
2010,10,19,01,50,3.60
2010,10,19,01,51,3.60
2010,10,19,01,52,3.60
2010,10,19,01,53,3.60
2010,10,19,01,54,3.60
2010,10,19,01,55,3.60
2010,10,19,01,56,3.60
2010,10,19,01,57,3.70
2010,10,19,01,58,3.70
2010,10,19,01,59,3.70
2010,10,19,02,00,3.70
2010,10,19,02,01,3.70
2010,10,19,02,02,3.70
2010,10,19,02,03,3.70
2010,10,19,02,04,3.70
2010,10,19,02,05,3.70
2010,10,19,02,06,3.70
2010,10,19,02,07,3.70
2010,10,19,02,08,3.70
2010,10,19,02,09,3.70
2010,10,19,02,10,3.70
2010,10,19,02,11,3.70
2010,10,19,02,12,3.70
2010,10,19,02,13,3.70
2010,10,19,02,14,3.70
2010,10,19,02,15,3.70
2010,10,19,02,16,3.70
2010,10,19,02,17,3.70
2010,10,19,02,18,3.70
2010,10,19,02,19,3.70
2010,10,19,02,20,3.70
2010,10,19,02,21,3.70
2010,10,19,02,22,3.70
2010,10,19,02,23,3.70
2010,10,19,02,24,3.70
2010,10,19,02,25,3.70
2010,10,19,02,26,3.70
2010,10,19,02,27,3.70
2010,10,19,02,28,3.70
2010,10,19,02,29,3.70
2010,10,19,02,30,3.70
2010,10,19,02,31,3.70
2010,10,19,02,32,3.70
2010,10,19,02,33,3.70
2010,10,19,02,34,3.70
2010,10,19,02,35,3.70
2010,10,19,02,36,3.70
2010,10,19,02,37,3.70
2010,10,19,02,38,3.70
2010,10,19,02,39,3.70
2010,10,19,02,40,3.70
2010,10,19,02,41,3.70
2010,10,19,02,42,3.70
2010,10,19,02,43,3.70
2010,10,19,02,44,3.70
2010,10,19,02,45,3.70
2010,10,19,02,46,3.70
2010,10,19,02,47,3.70
2010,10,19,02,48,3.80
2010,10,19,02,49,3.70
2010,10,19,02,50,3.80
2010,10,19,02,51,3.70
2010,10,19,02,52,3.70
2010,10,19,02,53,3.80
2010,10,19,02,54,3.80
2010,10,19,02,55,3.80
2010,10,19,02,56,3.80
2010,10,19,02,57,3.80
2010,10,19,02,58,3.80
2010,10,19,02,59,3.80
2010,10,19,03,00,3.80
2010,10,19,03,01,3.80
2010,10,19,03,02,3.80
2010,10,19,03,03,3.80
2010,10,19,03,04,3.80
2010,10,19,03,05,3.80
2010,10,19,03,06,3.80
2010,10,19,03,07,3.80
2010,10,19,03,08,3.80
2010,10,19,03,09,3.80
2010,10,19,03,10,3.80
2010,10,19,03,11,3.80
2010,10,19,03,12,3.80
2010,10,19,03,13,3.80
2010,10,19,03,14,3.80
2010,10,19,03,15,3.80
2010,10,19,03,16,3.80
2010,10,19,03,17,3.90
2010,10,19,03,18,3.90
2010,10,19,03,19,3.90
2010,10,19,03,20,3.90
2010,10,19,03,21,3.90
2010,10,19,03,22,3.90
2010,10,19,03,23,3.90
2010,10,19,03,24,3.90
2010,10,19,03,25,3.90
2010,10,19,03,26,3.90
2010,10,19,03,27,4.00
2010,10,19,03,28,4.00
2010,10,19,03,29,4.10
2010,10,19,03,30,4.10
2010,10,19,03,31,4.10
2010,10,19,03,32,4.10
2010,10,19,03,33,4.10
2010,10,19,03,34,4.20
2010,10,19,03,35,4.20
2010,10,19,03,36,4.20
2010,10,19,03,37,4.20
2010,10,19,03,38,4.20
2010,10,19,03,39,4.30
2010,10,19,03,40,4.30
2010,10,19,03,41,4.30
2010,10,19,03,42,4.30
2010,10,19,03,43,4.30
2010,10,19,03,44,4.40
2010,10,19,03,45,4.40
2010,10,19,03,46,4.40
2010,10,19,03,47,4.40
2010,10,19,03,48,4.40
2010,10,19,03,49,4.50
2010,10,19,03,50,4.50
2010,10,19,03,51,4.50
2010,10,19,03,52,4.60
2010,10,19,03,53,4.60
2010,10,19,03,54,4.60
2010,10,19,03,55,4.60
2010,10,19,03,56,4.70
2010,10,19,03,57,4.70
2010,10,19,03,58,4.70
2010,10,19,03,59,4.70
2010,10,19,04,00,4.70
2010,10,19,04,01,4.70
2010,10,19,04,02,4.80
2010,10,19,04,03,4.80
2010,10,19,04,04,4.80
2010,10,19,04,05,4.80
2010,10,19,04,06,4.90
2010,10,19,04,07,4.90
2010,10,19,04,08,4.90
2010,10,19,04,09,4.90
2010,10,19,04,10,4.90
2010,10,19,04,11,4.90
2010,10,19,04,12,4.90
2010,10,19,04,13,4.90
2010,10,19,04,14,5.00
2010,10,19,04,15,5.00
2010,10,19,04,16,5.00
2010,10,19,04,17,5.10
2010,10,19,04,18,5.10
2010,10,19,04,19,5.10
2010,10,19,04,20,5.10
2010,10,19,04,21,5.20
2010,10,19,04,22,5.20
2010,10,19,04,23,5.20
2010,10,19,04,24,5.20
2010,10,19,04,25,5.20
2010,10,19,04,26,5.20
2010,10,19,04,27,5.20
2010,10,19,04,28,5.30
2010,10,19,04,29,5.30
2010,10,19,04,30,5.30
2010,10,19,04,31,5.30
2010,10,19,04,32,5.30
2010,10,19,04,33,5.30
2010,10,19,04,34,5.30
2010,10,19,04,35,5.30
2010,10,19,04,36,5.30
2010,10,19,04,37,5.40
2010,10,19,04,38,5.40
2010,10,19,04,39,5.40
2010,10,19,04,40,5.40
2010,10,19,04,41,5.40
2010,10,19,04,42,5.40
2010,10,19,04,43,5.40
2010,10,19,04,44,5.40
2010,10,19,04,45,5.40
2010,10,19,04,46,5.50
2010,10,19,04,47,5.50
2010,10,19,04,48,5.50
2010,10,19,04,49,5.60
2010,10,19,04,50,5.60
2010,10,19,04,51,5.60
2010,10,19,04,52,5.60
2010,10,19,04,53,5.60
2010,10,19,04,54,5.70
2010,10,19,04,55,5.70
2010,10,19,04,56,5.70
2010,10,19,04,57,5.70
2010,10,19,04,58,5.70
2010,10,19,04,59,5.80
2010,10,19,05,00,5.80
2010,10,19,05,01,5.80
2010,10,19,05,02,5.80
2010,10,19,05,03,5.80
2010,10,19,05,04,5.90
2010,10,19,05,05,5.90
2010,10,19,05,06,5.90
2010,10,19,05,07,5.90
2010,10,19,05,08,5.90
2010,10,19,05,09,6.00
2010,10,19,05,10,6.00
2010,10,19,05,11,6.00
2010,10,19,05,12,6.00
2010,10,19,05,13,6.00
2010,10,19,05,14,6.00
2010,10,19,05,15,6.00
2010,10,19,05,16,6.00
2010,10,19,05,17,6.10
2010,10,19,05,18,6.10
2010,10,19,05,19,6.10
2010,10,19,05,20,6.10
2010,10,19,05,21,6.10
2010,10,19,05,22,6.10
2010,10,19,05,23,6.10
2010,10,19,05,24,6.10
2010,10,19,05,25,6.10
2010,10,19,05,26,6.10
2010,10,19,05,27,6.10
2010,10,19,05,28,6.10
2010,10,19,05,29,6.10
2010,10,19,05,30,6.10
2010,10,19,05,31,6.10
2010,10,19,05,32,6.10
2010,10,19,05,33,6.20
2010,10,19,05,34,6.10
2010,10,19,05,35,6.10
2010,10,19,05,36,6.10
2010,10,19,05,37,6.10
2010,10,19,05,38,6.10
2010,10,19,05,39,6.10
2010,10,19,05,40,6.10
2010,10,19,05,41,6.10
2010,10,19,05,42,6.10
2010,10,19,05,43,6.10
2010,10,19,05,44,6.10
2010,10,19,05,45,6.10
2010,10,19,05,46,6.10
2010,10,19,05,47,6.10
2010,10,19,05,48,6.10
2010,10,19,05,49,6.00
2010,10,19,05,50,6.00
2010,10,19,05,51,6.00
2010,10,19,05,52,6.00
2010,10,19,05,53,6.00
2010,10,19,05,54,6.00
2010,10,19,05,55,6.00
2010,10,19,05,56,6.00
2010,10,19,05,57,6.00
2010,10,19,05,58,6.00
2010,10,19,05,59,6.00
2010,10,19,06,00,6.00
2010,10,19,06,01,6.00
2010,10,19,06,02,6.00
2010,10,19,06,03,6.00
2010,10,19,06,04,6.00
2010,10,19,06,05,5.90
2010,10,19,06,06,5.90
2010,10,19,06,07,5.90
2010,10,19,06,08,5.90
2010,10,19,06,09,5.90
2010,10,19,06,10,5.90
2010,10,19,06,11,5.90
2010,10,19,06,12,5.90
2010,10,19,06,13,5.90
2010,10,19,06,14,5.90
2010,10,19,06,15,5.90
2010,10,19,06,16,5.90
2010,10,19,06,17,5.90
2010,10,19,06,18,5.90
2010,10,19,06,19,5.90
2010,10,19,06,20,5.90
2010,10,19,06,21,5.90
2010,10,19,06,22,5.90
2010,10,19,06,23,5.90
2010,10,19,06,24,5.90
2010,10,19,06,25,5.90
2010,10,19,06,26,5.90
2010,10,19,06,27,5.90
2010,10,19,06,28,5.90
2010,10,19,06,29,5.90
2010,10,19,06,30,5.90
2010,10,19,06,31,5.90
2010,10,19,06,32,5.90
2010,10,19,06,33,5.90
2010,10,19,06,34,5.80
2010,10,19,06,35,5.80
2010,10,19,06,36,5.80
2010,10,19,06,37,5.80
2010,10,19,06,38,5.80
2010,10,19,06,39,5.80
2010,10,19,06,40,5.80
2010,10,19,06,41,5.80
2010,10,19,06,42,5.80
2010,10,19,06,43,5.80
2010,10,19,06,44,5.70
2010,10,19,06,45,5.70
2010,10,19,06,46,5.70
2010,10,19,06,47,5.70
2010,10,19,06,48,5.70
2010,10,19,06,49,5.70
2010,10,19,06,50,5.70
2010,10,19,06,51,5.70
2010,10,19,06,52,5.70
2010,10,19,06,53,5.70
2010,10,19,06,54,5.60
2010,10,19,06,55,5.60
2010,10,19,06,56,5.60
2010,10,19,06,57,5.60
2010,10,19,06,58,5.60
2010,10,19,06,59,5.60
2010,10,19,07,00,5.60
2010,10,19,07,01,5.60
2010,10,19,07,02,5.60
2010,10,19,07,03,5.50
2010,10,19,07,04,5.50
2010,10,19,07,05,5.50
2010,10,19,07,06,5.50
2010,10,19,07,07,5.40
2010,10,19,07,08,5.40
2010,10,19,07,09,5.40
2010,10,19,07,10,5.40
2010,10,19,07,11,5.30
2010,10,19,07,12,5.30
2010,10,19,07,13,5.30
2010,10,19,07,14,5.30
2010,10,19,07,15,5.30
2010,10,19,07,16,5.30
2010,10,19,07,17,5.20
2010,10,19,07,18,5.20
2010,10,19,07,19,5.20
2010,10,19,07,20,5.20
2010,10,19,07,21,5.20
2010,10,19,07,22,5.20
2010,10,19,07,23,5.20
2010,10,19,07,24,5.20
2010,10,19,07,25,5.20
2010,10,19,07,26,5.20
2010,10,19,07,27,5.20
2010,10,19,07,28,5.20
2010,10,19,07,29,5.20
2010,10,19,07,30,5.10
2010,10,19,07,31,5.10
2010,10,19,07,32,5.10
2010,10,19,07,33,5.10
2010,10,19,07,34,5.10
2010,10,19,07,35,5.10
2010,10,19,07,36,5.00
2010,10,19,07,37,5.00
2010,10,19,07,38,5.00
2010,10,19,07,39,5.00
2010,10,19,07,40,5.00
2010,10,19,07,41,5.00
2010,10,19,07,42,4.90
2010,10,19,07,43,4.90
2010,10,19,07,44,4.90
2010,10,19,07,45,4.90
2010,10,19,07,46,4.90
2010,10,19,07,47,4.90
2010,10,19,07,48,4.80
2010,10,19,07,49,4.80
2010,10,19,07,50,4.80
2010,10,19,07,51,4.80
2010,10,19,07,52,4.80
2010,10,19,07,53,4.80
2010,10,19,07,54,4.80
2010,10,19,07,55,4.80
2010,10,19,07,56,4.80
2010,10,19,07,57,4.80
2010,10,19,07,58,4.80
2010,10,19,07,59,4.70
2010,10,19,08,00,4.70
2010,10,19,08,01,4.70
2010,10,19,08,02,4.70
2010,10,19,08,03,4.70
2010,10,19,08,04,4.70
2010,10,19,08,05,4.70
2010,10,19,08,06,4.70
2010,10,19,08,07,4.70
2010,10,19,08,08,4.70
2010,10,19,08,09,4.70
2010,10,19,08,10,4.70
2010,10,19,08,11,4.70
2010,10,19,08,12,4.60
2010,10,19,08,13,4.60
2010,10,19,08,14,4.60
2010,10,19,08,15,4.60
2010,10,19,08,16,4.60
2010,10,19,08,17,4.60
2010,10,19,08,18,4.60
2010,10,19,08,19,4.60
2010,10,19,08,20,4.60
2010,10,19,08,21,4.60
2010,10,19,08,22,4.60
2010,10,19,08,23,4.60
2010,10,19,08,24,4.60
2010,10,19,08,25,4.60
2010,10,19,08,26,4.60
2010,10,19,08,27,4.60
2010,10,19,08,28,4.60
2010,10,19,08,29,4.60
2010,10,19,08,30,4.60
2010,10,19,08,31,4.60
2010,10,19,08,32,4.60
2010,10,19,08,33,4.60
2010,10,19,08,34,4.60
2010,10,19,08,35,4.70
2010,10,19,08,36,4.70
2010,10,19,08,37,4.70
2010,10,19,08,38,4.70
2010,10,19,08,39,4.70
2010,10,19,08,40,4.70
2010,10,19,08,41,4.70
2010,10,19,08,42,4.70
2010,10,19,08,43,4.70
2010,10,19,08,44,4.70
2010,10,19,08,45,4.70
2010,10,19,08,46,4.70
2010,10,19,08,47,4.70
2010,10,19,08,48,4.80
2010,10,19,08,49,4.80
2010,10,19,08,50,4.80
2010,10,19,08,51,4.90
2010,10,19,08,52,4.90
2010,10,19,08,53,4.90
2010,10,19,08,54,4.90
2010,10,19,08,55,5.00
2010,10,19,08,56,5.00
2010,10,19,08,57,5.00
2010,10,19,08,58,5.10
2010,10,19,08,59,5.10
2010,10,19,09,00,5.10
2010,10,19,09,01,5.20
2010,10,19,09,02,5.20
2010,10,19,09,03,5.20
2010,10,19,09,04,5.30
2010,10,19,09,05,5.30
2010,10,19,09,06,5.30
2010,10,19,09,07,5.30
2010,10,19,09,08,5.40
2010,10,19,09,09,5.40
2010,10,19,09,10,5.40
2010,10,19,09,11,5.50
2010,10,19,09,12,5.50
2010,10,19,09,13,5.60
2010,10,19,09,14,5.60
2010,10,19,09,15,5.70
2010,10,19,09,16,5.70
2010,10,19,09,17,5.80
2010,10,19,09,18,5.80
2010,10,19,09,19,5.90
2010,10,19,09,20,6.00
2010,10,19,09,21,6.00
2010,10,19,09,22,6.10
2010,10,19,09,23,6.20
2010,10,19,09,24,6.20
2010,10,19,09,25,6.30
2010,10,19,09,26,6.40
2010,10,19,09,27,6.50
2010,10,19,09,28,6.60
2010,10,19,09,29,6.60
2010,10,19,09,30,6.70
2010,10,19,09,31,6.80
2010,10,19,09,32,6.80
2010,10,19,09,33,6.90
2010,10,19,09,34,7.00
2010,10,19,09,35,7.10
2010,10,19,09,36,7.20
2010,10,19,09,37,7.20
2010,10,19,09,38,7.30
2010,10,19,09,39,7.30
2010,10,19,09,40,7.40
2010,10,19,09,41,7.50
2010,10,19,09,42,7.50
2010,10,19,09,43,7.60
2010,10,19,09,44,7.60
2010,10,19,09,45,7.70
2010,10,19,09,46,7.70
2010,10,19,09,47,7.80
2010,10,19,09,48,7.80
2010,10,19,09,49,7.80
2010,10,19,09,50,7.90
2010,10,19,09,51,7.90
2010,10,19,09,52,8.00
2010,10,19,09,53,8.10
2010,10,19,09,54,8.10
2010,10,19,09,55,8.20
2010,10,19,09,56,8.30
2010,10,19,09,57,8.30
2010,10,19,09,58,8.40
2010,10,19,09,59,8.50
2010,10,19,10,00,8.60
2010,10,19,10,01,8.60
2010,10,19,10,02,8.70
2010,10,19,10,03,8.80
2010,10,19,10,04,8.90
2010,10,19,10,05,8.90
2010,10,19,10,06,8.90
2010,10,19,10,07,9.00
2010,10,19,10,08,9.10
2010,10,19,10,09,9.10
2010,10,19,10,10,9.10
2010,10,19,10,11,9.10
2010,10,19,10,12,9.20
2010,10,19,10,13,9.20
2010,10,19,10,14,9.20
2010,10,19,10,15,9.20
2010,10,19,10,16,9.30
2010,10,19,10,17,9.30
2010,10,19,10,18,9.30
2010,10,19,10,19,9.40
2010,10,19,10,20,9.40
2010,10,19,10,21,9.40
2010,10,19,10,22,9.40
2010,10,19,10,23,9.40
2010,10,19,10,24,9.40
2010,10,19,10,25,9.30
2010,10,19,10,26,9.30
2010,10,19,10,27,9.30
2010,10,19,10,28,9.40
2010,10,19,10,29,9.40
2010,10,19,10,30,9.40
2010,10,19,10,31,9.40
2010,10,19,10,32,9.40
2010,10,19,10,33,9.40
2010,10,19,10,34,9.50
2010,10,19,10,35,9.50
2010,10,19,10,36,9.60
2010,10,19,10,37,9.60
2010,10,19,10,38,9.60
2010,10,19,10,39,9.60
2010,10,19,10,40,9.70
2010,10,19,10,41,9.80
2010,10,19,10,42,9.80
2010,10,19,10,43,9.80
2010,10,19,10,44,9.90
2010,10,19,10,45,9.90
2010,10,19,10,46,10.00
2010,10,19,10,47,10.10
2010,10,19,10,48,10.10
2010,10,19,10,49,10.20
2010,10,19,10,50,10.30
2010,10,19,10,51,10.30
2010,10,19,10,52,10.40
2010,10,19,10,53,10.50
2010,10,19,10,54,10.60
2010,10,19,10,55,10.60
2010,10,19,10,56,10.70
2010,10,19,10,57,10.70
2010,10,19,10,58,10.80
2010,10,19,10,59,10.80
2010,10,19,11,00,10.90
2010,10,19,11,01,10.90
2010,10,19,11,02,11.00
2010,10,19,11,03,11.00
2010,10,19,11,04,11.10
2010,10,19,11,05,11.10
2010,10,19,11,06,11.10
2010,10,19,11,07,11.20
2010,10,19,11,08,11.20
2010,10,19,11,09,11.20
2010,10,19,11,10,11.30
2010,10,19,11,11,11.30
2010,10,19,11,12,11.30
2010,10,19,11,13,11.40
2010,10,19,11,14,11.50
2010,10,19,11,15,11.60
2010,10,19,11,16,11.60
2010,10,19,11,17,11.60
2010,10,19,11,18,11.70
2010,10,19,11,19,11.80
2010,10,19,11,20,11.80
2010,10,19,11,21,11.80
2010,10,19,11,22,11.90
2010,10,19,11,23,11.90
2010,10,19,11,24,12.00
2010,10,19,11,25,12.10
2010,10,19,11,26,12.10
2010,10,19,11,27,12.10
2010,10,19,11,28,12.20
2010,10,19,11,29,12.20
2010,10,19,11,30,12.30
2010,10,19,11,31,12.30
2010,10,19,11,32,12.30
2010,10,19,11,33,12.40
2010,10,19,11,34,12.40
2010,10,19,11,35,12.40
2010,10,19,11,36,12.40
2010,10,19,11,37,12.50
2010,10,19,11,38,12.50
2010,10,19,11,39,12.50
2010,10,19,11,40,12.50
2010,10,19,11,41,12.50
2010,10,19,11,42,12.60
2010,10,19,11,43,12.60
2010,10,19,11,44,12.60
2010,10,19,11,45,12.70
2010,10,19,11,46,12.70
2010,10,19,11,47,12.70
2010,10,19,11,48,12.70
2010,10,19,11,49,12.70
2010,10,19,11,50,12.70
2010,10,19,11,51,12.70
2010,10,19,11,52,12.70
2010,10,19,11,53,12.80
2010,10,19,11,54,12.80
2010,10,19,11,55,12.80
2010,10,19,11,56,12.80
2010,10,19,11,57,12.90
2010,10,19,11,58,12.90
2010,10,19,11,59,13.00
2010,10,19,12,00,13.00
2010,10,19,12,01,13.10
2010,10,19,12,02,13.20
2010,10,19,12,03,13.20
2010,10,19,12,04,13.30
2010,10,19,12,05,13.40
2010,10,19,12,06,13.40
2010,10,19,12,07,13.50
2010,10,19,12,08,13.60
2010,10,19,12,09,13.60
2010,10,19,12,10,13.60
2010,10,19,12,11,13.60
2010,10,19,12,12,13.70
2010,10,19,12,13,13.70
2010,10,19,12,14,13.80
2010,10,19,12,15,13.80
2010,10,19,12,16,13.80
2010,10,19,12,17,13.90
2010,10,19,12,18,13.90
2010,10,19,12,19,14.00
2010,10,19,12,20,14.00
2010,10,19,12,21,14.10
2010,10,19,12,22,14.10
2010,10,19,12,23,14.10
2010,10,19,12,24,14.20
2010,10,19,12,25,14.20
2010,10,19,12,26,14.20
2010,10,19,12,27,14.30
2010,10,19,12,28,14.30
2010,10,19,12,29,14.30
2010,10,19,12,30,14.40
2010,10,19,12,31,14.40
2010,10,19,12,32,14.40
2010,10,19,12,33,14.40
2010,10,19,12,34,14.50
2010,10,19,12,35,14.50
2010,10,19,12,36,14.60
2010,10,19,12,37,14.60
2010,10,19,12,38,14.70
2010,10,19,12,39,14.70
2010,10,19,12,40,14.70
2010,10,19,12,41,14.70
2010,10,19,12,42,14.70
2010,10,19,12,43,14.70
2010,10,19,12,44,14.80
2010,10,19,12,45,14.80
2010,10,19,12,46,14.80
2010,10,19,12,47,14.90
2010,10,19,12,48,14.90
2010,10,19,12,49,15.00
2010,10,19,12,50,15.00
2010,10,19,12,51,15.00
2010,10,19,12,52,15.00
2010,10,19,12,53,15.00
2010,10,19,12,54,15.00
2010,10,19,12,55,15.00
2010,10,19,12,56,15.10
2010,10,19,12,57,15.20
2010,10,19,12,58,15.20
2010,10,19,12,59,15.30
2010,10,19,13,00,15.30
2010,10,19,13,01,15.30
2010,10,19,13,02,15.40
2010,10,19,13,03,15.40
2010,10,19,13,04,15.50
2010,10,19,13,05,15.50
2010,10,19,13,06,15.50
2010,10,19,13,07,15.50
2010,10,19,13,08,15.50
2010,10,19,13,09,15.50
2010,10,19,13,10,15.40
2010,10,19,13,11,15.40
2010,10,19,13,12,15.40
2010,10,19,13,13,15.40
2010,10,19,13,14,15.40
2010,10,19,13,15,15.40
2010,10,19,13,16,15.40
2010,10,19,13,17,15.40
2010,10,19,13,18,15.50
2010,10,19,13,19,15.50
2010,10,19,13,20,15.50
2010,10,19,13,21,15.50
2010,10,19,13,22,15.50
2010,10,19,13,23,15.50
2010,10,19,13,24,15.50
2010,10,19,13,25,15.50
2010,10,19,13,26,15.60
2010,10,19,13,27,15.60
2010,10,19,13,28,15.70
2010,10,19,13,29,15.80
2010,10,19,13,30,15.80
2010,10,19,13,31,15.80
2010,10,19,13,32,15.90
2010,10,19,13,33,15.90
2010,10,19,13,34,16.00
2010,10,19,13,35,16.10
2010,10,19,13,36,16.10
2010,10,19,13,37,16.10
2010,10,19,13,38,16.10
2010,10,19,13,39,16.10
2010,10,19,13,40,16.10
2010,10,19,13,41,16.10
2010,10,19,13,42,16.10
2010,10,19,13,43,16.10
2010,10,19,13,44,16.20
2010,10,19,13,45,16.20
2010,10,19,13,46,16.20
2010,10,19,13,47,16.20
2010,10,19,13,48,16.20
2010,10,19,13,49,16.20
2010,10,19,13,50,16.20
2010,10,19,13,51,16.20
2010,10,19,13,52,16.20
2010,10,19,13,53,16.20
2010,10,19,13,54,16.30
2010,10,19,13,55,16.30
2010,10,19,13,56,16.30
2010,10,19,13,57,16.30
2010,10,19,13,58,16.30
2010,10,19,13,59,16.30
2010,10,19,14,00,16.20
2010,10,19,14,01,16.20
2010,10,19,14,02,16.20
2010,10,19,14,03,16.20
2010,10,19,14,04,16.30
2010,10,19,14,05,16.30
2010,10,19,14,06,16.30
2010,10,19,14,07,16.40
2010,10,19,14,08,16.40
2010,10,19,14,09,16.50
2010,10,19,14,10,16.50
2010,10,19,14,11,16.50
2010,10,19,14,12,16.50
2010,10,19,14,13,16.50
2010,10,19,14,14,16.60
2010,10,19,14,15,16.60
2010,10,19,14,16,16.70
2010,10,19,14,17,16.70
2010,10,19,14,18,16.70
2010,10,19,14,19,16.70
2010,10,19,14,20,16.70
2010,10,19,14,21,16.80
2010,10,19,14,22,16.80
2010,10,19,14,23,16.90
2010,10,19,14,24,16.90
2010,10,19,14,25,16.90
2010,10,19,14,26,16.90
2010,10,19,14,27,16.90
2010,10,19,14,28,16.90
2010,10,19,14,29,16.90
2010,10,19,14,30,16.90
2010,10,19,14,31,16.90
2010,10,19,14,32,16.90
2010,10,19,14,33,16.90
2010,10,19,14,34,16.90
2010,10,19,14,35,16.90
2010,10,19,14,36,16.90
2010,10,19,14,37,16.90
2010,10,19,14,38,16.90
2010,10,19,14,39,16.80
2010,10,19,14,40,16.80
2010,10,19,14,41,16.70
2010,10,19,14,42,16.70
2010,10,19,14,43,16.60
2010,10,19,14,44,16.50
2010,10,19,14,45,16.50
2010,10,19,14,46,16.40
2010,10,19,14,47,16.30
2010,10,19,14,48,16.30
2010,10,19,14,49,16.20
2010,10,19,14,50,16.20
2010,10,19,14,51,16.20
2010,10,19,14,52,16.10
2010,10,19,14,53,16.10
2010,10,19,14,54,16.10
2010,10,19,14,55,16.00
2010,10,19,14,56,16.00
2010,10,19,14,57,16.00
2010,10,19,14,58,15.90
2010,10,19,14,59,15.90
2010,10,19,15,00,15.90
2010,10,19,15,01,15.90
2010,10,19,15,02,15.90
2010,10,19,15,03,15.90
2010,10,19,15,04,15.90
2010,10,19,15,05,15.80
2010,10,19,15,06,15.80
2010,10,19,15,07,15.80
2010,10,19,15,08,15.70
2010,10,19,15,09,15.70
2010,10,19,15,10,15.70
2010,10,19,15,11,15.60
2010,10,19,15,12,15.60
2010,10,19,15,13,15.60
2010,10,19,15,14,15.60
2010,10,19,15,15,15.60
2010,10,19,15,16,15.60
2010,10,19,15,17,15.50
2010,10,19,15,18,15.50
2010,10,19,15,19,15.50
2010,10,19,15,20,15.40
2010,10,19,15,21,15.40
2010,10,19,15,22,15.40
2010,10,19,15,23,15.40
2010,10,19,15,24,15.40
2010,10,19,15,25,15.40
2010,10,19,15,26,15.40
2010,10,19,15,27,15.40
2010,10,19,15,28,15.40
2010,10,19,15,29,15.40
2010,10,19,15,30,15.40
2010,10,19,15,31,15.40
2010,10,19,15,32,15.30
2010,10,19,15,33,15.30
2010,10,19,15,34,15.30
2010,10,19,15,35,15.30
2010,10,19,15,36,15.30
2010,10,19,15,37,15.30
2010,10,19,15,38,15.30
2010,10,19,15,39,15.30
2010,10,19,15,40,15.30
2010,10,19,15,41,15.30
2010,10,19,15,42,15.30
2010,10,19,15,43,15.30
2010,10,19,15,44,15.30
2010,10,19,15,45,15.30
2010,10,19,15,46,15.30
2010,10,19,15,47,15.30
2010,10,19,15,48,15.30
2010,10,19,15,49,15.30
2010,10,19,15,50,15.30
2010,10,19,15,51,15.30
2010,10,19,15,52,15.30
2010,10,19,15,53,15.40
2010,10,19,15,54,15.40
2010,10,19,15,55,15.40
2010,10,19,15,56,15.40
2010,10,19,15,57,15.40
2010,10,19,15,58,15.40
2010,10,19,15,59,15.40
2010,10,19,16,00,15.40
2010,10,19,16,01,15.30
2010,10,19,16,02,15.30
2010,10,19,16,03,15.30
2010,10,19,16,04,15.30
2010,10,19,16,05,15.30
2010,10,19,16,06,15.20
2010,10,19,16,07,15.20
2010,10,19,16,08,15.10
2010,10,19,16,09,15.00
2010,10,19,16,10,15.00
2010,10,19,16,11,15.00
2010,10,19,16,12,15.00
2010,10,19,16,13,15.00
2010,10,19,16,14,15.00
2010,10,19,16,15,15.00
2010,10,19,16,16,15.00
2010,10,19,16,17,15.00
2010,10,19,16,18,14.90
2010,10,19,16,19,14.80
2010,10,19,16,20,14.80
2010,10,19,16,21,14.80
2010,10,19,16,22,14.70
2010,10,19,16,23,14.70
2010,10,19,16,24,14.70
2010,10,19,16,25,14.70
2010,10,19,16,26,14.60
2010,10,19,16,27,14.60
2010,10,19,16,28,14.60
2010,10,19,16,29,14.60
2010,10,19,16,30,14.60
2010,10,19,16,31,14.60
2010,10,19,16,32,14.50
2010,10,19,16,33,14.50
2010,10,19,16,34,14.40
2010,10,19,16,35,14.40
2010,10,19,16,36,14.40
2010,10,19,16,37,14.30
2010,10,19,16,38,14.30
2010,10,19,16,39,14.30
2010,10,19,16,40,14.20
2010,10,19,16,41,14.20
2010,10,19,16,42,14.20
2010,10,19,16,43,14.10
2010,10,19,16,44,14.10
2010,10,19,16,45,14.00
2010,10,19,16,46,14.00
2010,10,19,16,47,13.90
2010,10,19,16,48,13.90
2010,10,19,16,49,13.90
2010,10,19,16,50,13.80
2010,10,19,16,51,13.80
2010,10,19,16,52,13.80
2010,10,19,16,53,13.80
2010,10,19,16,54,13.80
2010,10,19,16,55,13.70
2010,10,19,16,56,13.70
2010,10,19,16,57,13.60
2010,10,19,16,58,13.60
2010,10,19,16,59,13.50
2010,10,19,17,00,13.50
2010,10,19,17,01,13.50
2010,10,19,17,02,13.40
2010,10,19,17,03,13.40
2010,10,19,17,04,13.40
2010,10,19,17,05,13.30
2010,10,19,17,06,13.30
2010,10,19,17,07,13.30
2010,10,19,17,08,13.30
2010,10,19,17,09,13.20
2010,10,19,17,10,13.20
2010,10,19,17,11,13.10
2010,10,19,17,12,13.10
2010,10,19,17,13,13.10
2010,10,19,17,14,13.00
2010,10,19,17,15,12.90
2010,10,19,17,16,12.90
2010,10,19,17,17,12.80
2010,10,19,17,18,12.80
2010,10,19,17,19,12.70
2010,10,19,17,20,12.70
2010,10,19,17,21,12.60
2010,10,19,17,22,12.60
2010,10,19,17,23,12.60
2010,10,19,17,24,12.50
2010,10,19,17,25,12.50
2010,10,19,17,26,12.40
2010,10,19,17,27,12.40
2010,10,19,17,28,12.30
2010,10,19,17,29,12.30
2010,10,19,17,30,12.30
2010,10,19,17,31,12.20
2010,10,19,17,32,12.20
2010,10,19,17,33,12.10
2010,10,19,17,34,12.10
2010,10,19,17,35,12.00
2010,10,19,17,36,11.90
2010,10,19,17,37,11.90
2010,10,19,17,38,11.90
2010,10,19,17,39,11.80
2010,10,19,17,40,11.80
2010,10,19,17,41,11.80
2010,10,19,17,42,11.80
2010,10,19,17,43,11.80
2010,10,19,17,44,11.80
2010,10,19,17,45,11.80
2010,10,19,17,46,11.80
2010,10,19,17,47,11.80